| time (UTC) | temp F | wind direction | speed MPH | gust MPH | rain 1hr in | rain 24hr in | rain mn in | humidity % | barometer mb |
| 20260510041554 | 49 | 244 | 4.0 | 8.0 | 0.00 | 0.43 | 0.00 | 94 | 956.9 |
| 20260510040050 | 49 | 242 | 3.0 | 11.0 | 0.00 | 0.43 | 0.00 | 94 | 956.4 |
| 20260510034549 | 49 | 108 | 7.0 | 11.0 | 0.00 | 0.43 | 0.43 | 94 | 955.4 |
| 20260510033058 | 49 | 104 | 6.0 | 10.0 | 0.00 | 0.43 | 0.43 | 93 | 955.3 |
| 20260510031551 | 49 | 94 | 7.0 | 10.0 | 0.00 | 0.43 | 0.43 | 93 | 955.4 |
| 20260510030049 | 50 | 144 | 6.0 | 14.0 | 0.00 | 0.43 | 0.43 | 93 | 955.4 |
| 20260510024549 | 50 | 94 | 12.0 | 19.0 | 0.00 | 0.43 | 0.43 | 93 | 955.1 |
| 20260510023046 | 50 | 81 | 12.0 | 17.0 | 0.00 | 0.43 | 0.43 | 93 | 954.8 |
| 20260510021550 | 50 | 80 | 10.0 | 15.0 | 0.00 | 0.43 | 0.43 | 93 | 954.8 |
| 20260510020044 | 50 | 92 | 11.0 | 18.0 | 0.00 | 0.43 | 0.43 | 93 | 954.9 |
| 20260510014545 | 50 | 94 | 12.0 | 19.0 | 0.00 | 0.43 | 0.43 | 93 | 954.8 |
| 20260510013049 | 50 | 82 | 10.0 | 16.0 | 0.00 | 0.43 | 0.43 | 93 | 954.9 |
| 20260510011549 | 51 | 94 | 9.0 | 14.0 | 0.00 | 0.43 | 0.43 | 92 | 954.6 |
| 20260510010041 | 51 | 88 | 9.0 | 14.0 | 0.00 | 0.43 | 0.43 | 92 | 954.7 |
| 20260510004544 | 51 | 86 | 9.0 | 13.0 | 0.00 | 0.43 | 0.43 | 92 | 954.5 |
| 20260510003041 | 51 | 84 | 9.0 | 13.0 | 0.00 | 0.43 | 0.43 | 91 | 954.3 |
| 20260510001543 | 52 | 98 | 7.0 | 13.0 | 0.00 | 0.43 | 0.43 | 90 | 954.3 |
| 20260510000048 | 52 | 124 | 8.0 | 11.0 | 0.00 | 0.43 | 0.43 | 90 | 954.4 |
| 20260509234539 | 52 | 111 | 7.0 | 10.0 | 0.00 | 0.43 | 0.43 | 90 | 954.2 |
| 20260509233038 | 52 | 146 | 6.0 | 11.0 | 0.00 | 0.43 | 0.43 | 89 | 953.9 |
| 20260509231540 | 53 | 124 | 5.0 | 12.0 | 0.00 | 0.43 | 0.43 | 89 | 953.7 |
| 20260509230037 | 53 | 99 | 8.0 | 13.0 | 0.00 | 0.43 | 0.43 | 89 | 954.0 |
| 20260509224535 | 53 | 158 | 3.0 | 10.0 | 0.01 | 0.43 | 0.43 | 89 | 954.1 |
| 20260509223034 | 53 | 140 | 5.0 | 11.0 | 0.01 | 0.43 | 0.43 | 89 | 954.0 |
| 20260509221533 | 53 | 141 | 5.0 | 14.0 | 0.01 | 0.43 | 0.43 | 90 | 953.8 |
| 20260509220033 | 53 | 172 | 6.0 | 15.0 | 0.01 | 0.43 | 0.43 | 90 | 954.0 |
| 20260509214529 | 53 | 150 | 6.0 | 16.0 | 0.00 | 0.42 | 0.42 | 91 | 954.1 |
| 20260509213032 | 52 | 138 | 5.0 | 11.0 | 0.00 | 0.42 | 0.42 | 93 | 954.0 |
| 20260509211524 | 51 | 148 | 4.0 | 12.0 | 0.00 | 0.42 | 0.42 | 95 | 954.1 |
| 20260509210023 | 50 | 155 | 4.0 | 9.0 | 0.00 | 0.42 | 0.42 | 95 | 954.5 |
| 20260509204521 | 50 | 100 | 4.0 | 8.0 | 0.00 | 0.42 | 0.42 | 95 | 954.6 |
| 20260509203019 | 50 | 130 | 3.0 | 7.0 | 0.00 | 0.42 | 0.42 | 95 | 954.6 |
| 20260509201518 | 50 | 106 | 3.0 | 9.0 | 0.01 | 0.42 | 0.42 | 95 | 954.6 |
| 20260509200017 | 49 | 167 | 5.0 | 9.0 | 0.02 | 0.42 | 0.42 | 95 | 954.9 |
| 20260509194517 | 50 | 131 | 4.0 | 8.0 | 0.05 | 0.42 | 0.42 | 95 | 954.9 |
| 20260509193025 | 50 | 128 | 4.0 | 9.0 | 0.07 | 0.42 | 0.42 | 95 | 955.0 |
| 20260509191516 | 50 | 134 | 3.0 | 8.0 | 0.07 | 0.41 | 0.41 | 95 | 955.0 |
| 20260509190114 | 50 | 143 | 4.0 | 9.0 | 0.06 | 0.40 | 0.40 | 95 | 955.3 |
| 20260509184527 | 49 | 130 | 5.0 | 9.0 | 0.03 | 0.37 | 0.37 | 94 | 955.2 |
| 20260509183008 | 49 | 113 | 6.0 | 9.0 | 0.01 | 0.35 | 0.35 | 94 | 955.2 |
| 20260509181505 | 49 | 121 | 3.0 | 9.0 | 0.00 | 0.34 | 0.34 | 94 | 955.2 |
| 20260509180002 | 49 | 106 | 6.0 | 13.0 | 0.00 | 0.34 | 0.34 | 94 | 955.2 |
| 20260509174621 | 49 | 122 | 8.0 | 12.0 | 0.01 | 0.34 | 0.34 | 94 | 955.2 |
| 20260509173059 | 49 | 146 | 5.0 | 14.0 | 0.01 | 0.34 | 0.34 | 94 | 955.1 |
| 20260509171559 | 49 | 86 | 8.0 | 14.0 | 0.02 | 0.34 | 0.34 | 94 | 954.9 |
| 20260509170059 | 48 | 109 | 9.0 | 14.0 | 0.02 | 0.34 | 0.34 | 94 | 955.1 |
| 20260509164553 | 49 | 66 | 9.0 | 14.0 | 0.01 | 0.33 | 0.33 | 95 | 955.1 |
| 20260509163056 | 49 | 87 | 9.0 | 14.0 | 0.02 | 0.33 | 0.33 | 95 | 955.1 |
| 20260509161551 | 49 | 100 | 9.0 | 14.0 | 0.01 | 0.32 | 0.32 | 95 | 955.2 |
| 20260509160049 | 49 | 89 | 8.0 | 16.0 | 0.01 | 0.32 | 0.32 | 95 | 955.4 |
| 20260509154546 | 48 | 125 | 10.0 | 16.0 | 0.02 | 0.32 | 0.32 | 95 | 955.5 |
| 20260509153055 | 48 | 94 | 11.0 | 16.0 | 0.02 | 0.31 | 0.31 | 95 | 955.6 |
| 20260509151542 | 48 | 95 | 11.0 | 18.0 | 0.03 | 0.31 | 0.31 | 95 | 955.7 |
| 20260509150041 | 48 | 105 | 12.0 | 18.0 | 0.04 | 0.31 | 0.31 | 95 | 956.1 |
| 20260509144537 | 47 | 80 | 12.0 | 16.0 | 0.04 | 0.30 | 0.30 | 95 | 956.1 |
| 20260509143033 | 47 | 114 | 11.0 | 16.0 | 0.03 | 0.28 | 0.28 | 96 | 956.1 |
| 20260509141532 | 47 | 85 | 10.0 | 15.0 | 0.03 | 0.28 | 0.28 | 95 | 956.1 |
| 20260509140028 | 46 | 75 | 8.0 | 15.0 | 0.03 | 0.27 | 0.27 | 96 | 956.1 |
| 20260509134528 | 46 | 77 | 9.0 | 15.0 | 0.04 | 0.26 | 0.26 | 96 | 956.2 |
| 20260509133026 | 46 | 76 | 11.0 | 15.0 | 0.06 | 0.26 | 0.26 | 96 | 956.0 |
| 20260509131523 | 46 | 47 | 7.0 | 12.0 | 0.06 | 0.25 | 0.25 | 96 | 956.3 |
| 20260509130032 | 46 | 80 | 9.0 | 14.0 | 0.07 | 0.24 | 0.24 | 95 | 956.4 |
| 20260509124522 | 46 | 81 | 9.0 | 14.0 | 0.06 | 0.22 | 0.22 | 95 | 956.5 |
| 20260509123021 | 46 | 77 | 9.0 | 13.0 | 0.05 | 0.20 | 0.20 | 95 | 956.5 |
| 20260509121525 | 46 | 88 | 7.0 | 13.0 | 0.04 | 0.18 | 0.18 | 95 | 956.6 |
| 20260509120019 | 46 | 86 | 8.0 | 10.0 | 0.04 | 0.17 | 0.17 | 95 | 956.5 |
| 20260509114517 | 45 | 103 | 7.0 | 14.0 | 0.06 | 0.16 | 0.16 | 95 | 956.7 |
| 20260509113016 | 45 | 100 | 8.0 | 17.0 | 0.07 | 0.15 | 0.15 | 95 | 956.6 |
| 20260509111513 | 45 | 76 | 11.0 | 17.0 | 0.09 | 0.14 | 0.14 | 95 | 956.6 |
| 20260509110111 | 45 | 84 | 9.0 | 14.0 | 0.09 | 0.13 | 0.13 | 95 | 956.6 |
| 20260509104511 | 45 | 108 | 8.0 | 12.0 | 0.06 | 0.10 | 0.10 | 94 | 956.4 |
| 20260509103008 | 45 | 82 | 8.0 | 12.0 | 0.03 | 0.07 | 0.07 | 94 | 956.6 |
| 20260509101510 | 45 | 107 | 6.0 | 10.0 | 0.01 | 0.05 | 0.05 | 94 | 956.4 |
| 20260509100006 | 45 | 94 | 7.0 | 10.0 | 0.00 | 0.04 | 0.04 | 94 | 956.4 |
| 20260509094503 | 45 | 86 | 7.0 | 11.0 | 0.01 | 0.04 | 0.04 | 94 | 956.2 |
| 20260509093002 | 45 | 86 | 5.0 | 9.0 | 0.01 | 0.04 | 0.04 | 94 | 956.3 |
| 20260509091607 | 45 | 84 | 5.0 | 10.0 | 0.01 | 0.04 | 0.04 | 94 | 956.2 |
| 20260509090105 | 45 | 86 | 5.0 | 10.0 | 0.01 | 0.04 | 0.04 | 94 | 956.5 |
| 20260509084602 | 45 | 97 | 7.0 | 10.0 | 0.01 | 0.03 | 0.03 | 94 | 956.5 |
| 20260509083100 | 45 | 93 | 6.0 | 10.0 | 0.01 | 0.03 | 0.03 | 93 | 956.7 |
| 20260509081554 | 45 | 86 | 5.0 | 9.0 | 0.01 | 0.03 | 0.03 | 93 | 956.9 |
| 20260509080054 | 45 | 101 | 4.0 | 9.0 | 0.01 | 0.03 | 0.03 | 93 | 957.2 |
| 20260509074554 | 45 | 97 | 5.0 | 10.0 | 0.00 | 0.02 | 0.02 | 92 | 957.0 |
| 20260509073051 | 45 | 81 | 5.0 | 9.0 | 0.01 | 0.02 | 0.02 | 91 | 956.9 |
| 20260509071548 | 45 | 112 | 4.0 | 7.0 | 0.02 | 0.02 | 0.02 | 91 | 956.9 |
| 20260509070046 | 46 | 155 | 2.0 | 5.0 | 0.02 | 0.02 | 0.02 | 91 | 956.7 |
| 20260509064544 | 45 | 138 | 2.0 | 4.0 | 0.02 | 0.02 | 0.02 | 90 | 957.0 |
| 20260509063041 | 45 | 115 | 2.0 | 6.0 | 0.01 | 0.01 | 0.01 | 89 | 957.2 |
| 20260509061543 | 45 | 102 | 3.0 | 6.0 | 0.00 | 0.00 | 0.00 | 87 | 957.4 |
| 20260509060048 | 45 | 98 | 3.0 | 6.0 | 0.00 | 0.00 | 0.00 | 86 | 957.5 |
| 20260509054539 | 45 | 106 | 3.0 | 7.0 | 0.00 | 0.00 | 0.00 | 84 | 957.6 |
| 20260509053101 | 45 | 106 | 4.0 | 8.0 | 0.00 | 0.00 | 0.00 | 83 | 957.6 |
| 20260509051542 | 46 | 120 | 3.0 | 9.0 | 0.00 | 0.00 | 0.00 | 83 | 957.6 |
| 20260509050032 | 46 | 81 | 3.0 | 9.0 | 0.00 | 0.00 | 0.00 | 82 | 957.4 |
| 20260509044532 | 46 | 103 | 4.0 | 8.0 | 0.00 | 0.00 | 0.00 | 81 | 957.7 |